This is the latest recevied weather packets stored in our database for station/object K4PAR-1. If no packets are shown the sender has not sent any weather packets the latest 10 day(s).
| Time | Temp. | Humidity | Pressure | Rain* | Wind** | Luminosity | Snow |
|---|---|---|---|---|---|---|---|
| 1788547700 | 32.78° C | - | - | 0 mm | 1.79 m/s, 302° | - | - |
| 1788547457 | 32.78° C | - | - | 0 mm | 0 m/s | - | - |
| 1788547215 | 31.67° C | - | - | 0 mm | 0.89 m/s, 214° | - | - |
| 1788547065 | 32.22° C | - | - | 0 mm | 2.68 m/s, 212° | - | - |
| 1788546972 | 32.22° C | - | - | 0 mm | 2.68 m/s, 212° | - | - |
| 1788546729 | 35.56° C | - | - | 0 mm | 0.89 m/s, 252° | - | - |
| 1788546715 | 33.89° C | - | - | 0 mm | 0 m/s | - | - |
| 1788546711 | 35.56° C | - | - | 0 mm | 0 m/s | - | - |
| 1788546526 | 33.89° C | - | - | 0 mm | 0 m/s | - | - |
| 1788546487 | 33.89° C | - | - | 0 mm | 0 m/s | - | - |
| 1788546244 | 35.56° C | - | - | 0 mm | 0 m/s | - | - |
| 1788545759 | 34.44° C | - | - | 0 mm | 0 m/s | - | - |
| 1788545517 | 33.33° C | - | - | 0 mm | 0.89 m/s, 215° | - | - |
| 1788545274 | 32.22° C | - | - | 0 mm | 3.13 m/s, 131° | - | - |
| 1788545032 | 32.22° C | - | - | 0 mm | 2.68 m/s, 249° | - | - |
| 1788544789 | 32.78° C | - | - | 0 mm | 2.24 m/s, 210° | - | - |
| 1788544304 | 32.22° C | - | - | 0 mm | 0 m/s | - | - |
| 1788543819 | 32.22° C | - | - | 0 mm | 4.02 m/s, 228° | - | - |
| 1788543334 | 32.22° C | - | - | 0 mm | 1.34 m/s, 197° | - | - |
| 1788543091 | 31.67° C | - | - | 0 mm | 1.79 m/s, 280° | - | - |
| 1788542849 | 32.22° C | - | - | 0 mm | 2.24 m/s, 245° | - | - |
| 1788542606 | 32.22° C | - | - | 0 mm | 1.34 m/s, 231° | - | - |
| 1788542363 | 32.22° C | - | - | 0 mm | 1.34 m/s, 288° | - | - |
| 1788542121 | 33.33° C | - | - | 0 mm | 0 m/s | - | - |
| 1788541636 | 33.33° C | - | - | 0 mm | 0.89 m/s, 249° | - | - |
* Rain latest hour (hover to see other rain measurements)
** Current wind speed in m/s (hover to see current wind gust speed)